Flag for Belgium Weather past 2 weeks in Eupen, Belgium

Now
62 °F

Passing clouds.


Feels Like: 62 °F
Forecast: 58 / 72 °F
Wind: 1 mph from Northwest

Location: Spa / La Sauveniere

Current Time: Jul 28, 2014 at 10:42:16 PM

Latest Report: Jul 28, 2014 at 10:00 PM


Visibility: 6 mi

Pressure: 29.90 "Hg

Humidity: 95%

Dew point: 60 °F

Location of EupenLocation

Historic Weather in Eupen — Graph

°F

Eupen temperature yesterday

Maximum temperature yesterday: 73 °F (at 6:00 PM)
Minimum temperature yesterday: 60 °F (at 3:00 AM)
Average temperature yesterday: 65 °F

Past Weeks' High & Low Weather Summary

 TemperatureHumidityPressure
High87 °F (Jul 18, 6:00 PM)100% (Jul 14, 10:00 AM)30.22 "Hg (Jul 14, 10:00 AM)
Low52 °F (Jul 15, 3:00 AM)32% (Jul 18, 4:00 PM)29.78 "Hg (Jul 13, 9:00 PM)
Average66 °F75%29.99 "Hg
* Reported Jul 13 9:00 PM — Jul 28 9:00 PM, Eupen, Weather by CustomWeather, © 2014

Note: Actual official high and low records may vary slightly from our data, if they occured in-between our weather recording intervals... More about our weather records

Advertising

Eupen weather history for previous 24 hours

 ConditionsComfort  
Time TempWeatherWind HumidityBarometerVisibility
9:00 PM
Jul 28
63 °FLow clouds.2 mph90%29.89 "Hg16 mi
8:00 PM64 °FPassing clouds.1 mph89%29.88 "Hg14 mi
7:00 PM64 °FPassing clouds.1 mph83%29.87 "Hg17 mi
6:00 PM64 °FSunny.1 mph86%29.88 "Hg18 mi
5:00 PM64 °FSunny.5 mph82%29.87 "Hg17 mi
4:00 PM65 °FLow clouds.2 mph88%29.86 "Hg17 mi
3:00 PM64 °FScattered clouds.2 mph91%29.88 "Hg7 mi
2:00 PM63 °FLow clouds.2 mph96%29.88 "HgN/A
1:00 PM63 °FLow clouds.3 mph96%29.89 "HgN/A
12:00 PM60 °FLight rain. Partly sunny.N/A93%29.89 "Hg3 mi
11:00 AM69 °FPartly sunny.N/A73%29.86 "Hg11 mi
10:00 AM68 °FSunny.5 mph77%29.87 "Hg10 mi
9:00 AM65 °FSunny.3 mph82%29.88 "Hg6 mi
8:00 AM62 °FPassing clouds.2 mph90%29.90 "HgN/A
7:00 AM62 °FSunny.5 mph88%29.90 "HgN/A
6:00 AM61 °FSunny.3 mph90%29.91 "HgN/A
5:00 AM61 °FClear.2 mph90%29.92 "HgN/A
4:00 AM62 °FClear.3 mph88%29.94 "Hg6 mi
3:00 AM63 °FPassing clouds.3 mph85%29.96 "Hg7 mi
2:00 AM63 °FClear.2 mph87%29.97 "Hg7 mi
1:00 AM63 °FClear.2 mph85%30.00 "Hg7 mi
12:00 AM63 °FPassing clouds.1 mph87%30.01 "Hg9 mi
11:00 PM
Jul 27
63 °FClear.1 mph88%30.01 "Hg10 mi
10:00 PM64 °FPassing clouds.N/A84%30.01 "Hg10 mi
Weather by CustomWeather, © 2014

See weather overviewHow to use our weather pages